Zurück zum Katalog

THORAD AGENA D DEB

LostPO
NORAD 42513·DEBRIS·🇺🇸 United States

Gestartet Apr 8, 1970 von Vandenberg Space Force Base

Loading…

Nächste Überflüge (nächste 24 Stunden)

TLE

VeraltetSource: Space-Track

Epoche: Dec 24, 2024, 14:03 UTC

1 42513U 70025RT  24359.58583686  .00002472  00000-0  20991-2 0  9999
2 42513  99.9902 284.6650 0012875 119.9604 240.2831 13.88465830561232

Verfolge THORAD AGENA D DEB in Echtzeit mit AllMySat

Download on the App Store